[TLELIST] Archives

 

[list_settings.list_name] Current TLEs

May 23rd 2013 PDT

HST 1 20580U 90037B 13142.83261519 .00001895 00000-0 12304-3 0 2450 2 20580 028.4705 079.0441 0003363 080.8805 311.4228 15.03614807 65874 ISS (ZARYA) 1 25544U 98067A 13143.37641818 .00014065 00000-0 24971-3 0 8643 2 25544 051.6489 231.3592 0009524 348.0618 094.4554 15.50446910830850 CXO 1 25867U 99040B 13144.11109643 -.00000768 00000-0 00000+0 0 9045 2 25867 075.2854 340.9713 8584745 277.5313 359.5834 00.37801900 10441 ____________________________________________________________________ These 2-Line ...Continue Reading

[list_settings.list_name] Current TLEs

May 22nd 2013 PDT

HST 1 20580U 90037B 13141.32497296 .00002090 00000-0 13698-3 0 2440 2 20580 028.4702 088.9263 0003432 065.2262 070.1156 15.03608794 65656 ISS (ZARYA) 1 25544U 98067A 13142.21706487 .00014675 00000-0 26048-3 0 8586 2 25544 051.6489 237.1067 0009546 343.8246 103.4341 15.50414840830677 CXO 1 25867U 99040B 13144.11109643 -.00000768 00000-0 00000+0 0 9045 2 25867 075.2854 340.9713 8584745 277.5313 359.5834 00.37801900 10441 ____________________________________________________________________ These 2-Line ...Continue Reading

[list_settings.list_name] Current TLEs

May 21st 2013 PDT

HST 1 20580U 90037B 13140.12524322 .00002303 00000-0 15221-3 0 2438 2 20580 028.4698 096.7916 0003505 052.3619 056.0570 15.03604758 65475 ISS (ZARYA) 1 25544U 98067A 13141.30650442 .00011732 00000-0 21012-3 0 8503 2 25544 051.6488 241.6221 0009665 339.2323 062.4256 15.50385334830534 CXO 1 25867U 99040B 13141.46693852 -.00000657 00000-0 00000+0 0 9036 2 25867 075.2659 341.1668 8584661 277.5240 359.7544 00.37802806 10437 ____________________________________________________________________ These 2-Line ...Continue Reading

[list_settings.list_name] Current TLEs

May 20th 2013 PDT

HST 1 20580U 90037B 13140.12524322 .00002303 00000-0 15221-3 0 2438 2 20580 028.4698 096.7916 0003505 052.3619 056.0570 15.03604758 65475 ISS (ZARYA) 1 25544U 98067A 13140.47830631 .00017579 00000-0 31093-3 0 8459 2 25544 051.6490 245.7284 0009173 337.5909 118.5513 15.50363490830400 CXO 1 25867U 99040B 13141.46693852 -.00000657 00000-0 00000+0 0 9036 2 25867 075.2659 341.1668 8584661 277.5240 359.7544 00.37802806 10437 ____________________________________________________________________ These 2-Line ...Continue Reading

[list_settings.list_name] Current TLEs

May 19th 2013 PDT

HST 1 20580U 90037B 13139.12107178 .00002055 00000-0 13452-3 0 2429 2 20580 028.4701 103.3684 0003540 041.6360 020.5257 15.03600057 65319 ISS (ZARYA) 1 25544U 98067A 13139.30826478 .00029599 00000-0 51778-3 0 8382 2 25544 051.6479 251.5234 0009375 332.9506 068.6170 15.50334239830226 CXO 1 25867U 99040B 13141.46693852 -.00000657 00000-0 00000+0 0 9036 2 25867 075.2659 341.1668 8584661 277.5240 359.7544 00.37802806 10437 ____________________________________________________________________ These 2-Line ...Continue Reading

[list_settings.list_name] Current TLEs

May 18th 2013 PDT

HST 1 20580U 90037B 13137.40860068 .00002150 00000-0 14133-3 0 2414 2 20580 028.4698 114.5934 0003494 024.4409 109.9519 15.03589317 65067 ISS (ZARYA) 1 25544U 98067A 13138.47846693 .00018095 00000-0 32067-3 0 8323 2 25544 051.6483 255.6378 0009195 328.3948 118.9189 15.50284857830098 CXO 1 25867U 99040B 13138.82242806 -.00000501 00000-0 00000+0 0 9028 2 25867 075.2471 341.3378 8584059 277.5448 359.7775 00.37798894 10426 ____________________________________________________________________ These 2-Line ...Continue Reading

[list_settings.list_name] Current TLEs

May 17th 2013 PDT

HST 1 20580U 90037B 13136.14009751 .00002132 00000-0 14007-3 0 2407 2 20580 028.4696 122.9088 0003546 012.3648 082.1943 15.03583292 64863 ISS (ZARYA) 1 25544U 98067A 13137.37623628 .00013736 00000-0 24598-3 0 8251 2 25544 051.6483 261.1025 0008806 325.1710 086.5866 15.50230597829923 CXO 1 25867U 99040B 13138.82242806 -.00000501 00000-0 00000+0 0 9028 2 25867 075.2471 341.3378 8584059 277.5448 359.7775 00.37798894 10426 ____________________________________________________________________ These 2-Line ...Continue Reading

[list_settings.list_name] Current TLEs

May 16th 2013 PDT

HST 1 20580U 90037B 13136.14009751 .00002132 00000-0 14007-3 0 2407 2 20580 028.4696 122.9088 0003546 012.3648 082.1943 15.03583292 64863 ISS (ZARYA) 1 25544U 98067A 13136.34366604 .00017363 00000-0 29863-3 0 8198 2 25544 051.6498 266.2212 0005008 317.2691 085.4406 15.51193452829763 CXO 1 25867U 99040B 13138.82242806 -.00000501 00000-0 00000+0 0 9028 2 25867 075.2471 341.3378 8584059 277.5448 359.7775 00.37798894 10426 ____________________________________________________________________ These 2-Line ...Continue Reading

[list_settings.list_name] Current TLEs

May 15th 2013 PDT

HST 1 20580U 90037B 13134.41890367 .00001964 00000-0 12807-3 0 2392 2 20580 028.4692 134.1912 0003456 355.0916 124.4636 15.03576963 64614 ISS (ZARYA) 1 25544U 98067A 13135.50630547 .00009789 00000-0 17215-3 0 8141 2 25544 051.6493 270.3776 0005144 311.5553 092.0374 15.51156193829639 CXO 1 25867U 99040B 13136.17687954 -.00000476 00000-0 00000+0 0 9011 2 25867 075.2263 341.4833 8585809 277.5840 359.6029 00.37796753 10414 ____________________________________________________________________ These 2-Line ...Continue Reading

[list_settings.list_name] Current TLEs

May 14th 2013 PDT

HST 1 20580U 90037B 13133.15030543 .00002086 00000-0 13680-3 0 2389 2 20580 028.4691 142.5067 0003407 342.4194 096.8410 15.03572357 64414 ISS (ZARYA) 1 25544U 98067A 13134.41058172 .00011518 00000-0 20149-3 0 8073 2 25544 051.6484 275.8101 0005173 309.7690 091.1064 15.51103696829461 CXO 1 25867U 99040B 13136.17687954 -.00000476 00000-0 00000+0 0 9011 2 25867 075.2263 341.4833 8585809 277.5840 359.6029 00.37796753 10414 ____________________________________________________________________ These 2-Line ...Continue Reading
  • This mailing list is a public mailing list - anyone may join or leave, at any time.
  • This mailing list is announce-only.

International Space Station (ISS) / Hubble Space Telescope (HST) / Chandra X-Ray Observatory Orbital Data via EMAIL

Privacy Policy:

Private list